Total_Precipitation_Accumulation
0.04 0.04 0.03 0.04 0.03 0.02 0.02 0.03 0.03 0.03 0.03 0.03 0.03 0.03 0.03 0.03 0.02 0.02 0.02 0.03 0.02 0.02 0.02 0.01 0.01 0.01 0.01 0.01 0.00 0.00 0.00 0.01 0.00 0.00 0.00 0.00 0.00 0.00 0.00 0.00 0.00 0.00 0.00 0.00 0.00 0.00 0.00 0.00 0.00 0.00 0.00 0.00 0.00 0.00 0.00 0.00 0.00 0.00 0.00 0.00 0.00 0.00 0.00 0.00 0.00 0.00 0.00 0.00 0.00 0.00 0.00 0.00 0.00 0.00 0.00 0.00 0.00 0.01 0.00 0.02 0.02 0.03 0.09 0.07 0.09 0.14 0.08 0.13
0.04 0.04 0.03 0.03 0.02 0.02 0.03 0.03 0.03 0.03 0.02 0.02 0.02 0.02 0.02 0.02 0.03 0.02 0.02 0.01 0.02 0.01 0.01 0.02 0.01 0.01 0.01 0.00 0.00 0.00 0.00 0.00 0.00 0.00 0.00 0.00 0.00 0.00 0.00 0.00 0.00 0.00 0.00 0.00 0.00 0.00 0.00 0.00 0.00 0.00 0.00 0.00 0.00 0.00 0.00 0.00 0.00 0.00 0.00 0.00 0.00 0.00 0.00 0.00 0.00 0.00 0.00 0.00 0.00 0.00 0.00 0.00 0.00 0.01 0.00 0.01 0.00 0.00 0.01 0.06 0.04 0.14 0.18 0.10 0.14 0.10 0.13 0.17
0.03 0.03 0.03 0.02 0.02 0.03 0.03 0.03 0.03 0.02 0.02 0.02 0.02 0.03 0.02 0.02 0.02 0.02 0.02 0.03 0.02 0.01 0.01 0.01 0.01 0.00 0.00 0.00 0.00 0.00 0.00 0.00 0.00 0.00 0.00 0.00 0.00 0.00 0.00 0.00 0.00 0.00 0.00 0.00 0.00 0.00 0.00 0.00 0.00 0.00 0.00 0.00 0.00 0.00 0.00 0.00 0.00 0.00 0.00 0.00 0.00 0.00 0.00 0.00 0.00 0.00 0.00 0.00 0.00 0.00 0.00 0.00 0.00 0.00 0.00 0.03 0.01 0.00 0.01 0.07 0.07 0.12 0.26 0.11 0.14 0.15 0.13 0.30
0.03 0.03 0.02 0.02 0.02 0.03 0.03 0.02 0.02 0.02 0.02 0.02 0.02 0.03 0.03 0.02 0.01 0.02 0.03 0.02 0.01 0.01 0.01 0.00 0.00 0.00 0.00 0.00 0.00 0.00 0.00 0.00 0.00 0.00 0.00 0.00 0.00 0.00 0.00 0.00 0.00 0.00 0.00 0.00 0.00 0.00 0.00 0.00 0.00 0.00 0.00 0.00 0.00 0.00 0.00 0.00 0.00 0.00 0.00 0.00 0.00 0.00 0.00 0.00 0.00 0.00 0.00 0.00 0.00 0.00 0.00 0.00 0.00 0.00 0.00 0.00 0.02 0.01 0.10 0.00 0.03 0.11 0.21 0.16 0.14 0.16 0.17 0.26
0.03 0.03 0.03 0.02 0.02 0.02 0.02 0.01 0.01 0.02 0.03 0.02 0.02 0.02 0.04 0.03 0.02 0.02 0.01 0.01 0.01 0.01 0.01 0.00 0.00 0.00 0.00 0.00 0.00 0.00 0.00 0.00 0.00 0.00 0.00 0.00 0.00 0.00 0.00 0.00 0.00 0.00 0.00 0.00 0.00 0.00 0.00 0.00 0.00 0.00 0.00 0.00 0.00 0.00 0.00 0.00 0.00 0.00 0.00 0.00 0.00 0.00 0.00 0.00 0.00 0.00 0.00 0.00 0.00 0.00 0.00 0.00 0.00 0.00 0.00 0.01 0.02 0.23 0.04 0.01 0.02 0.42 0.80 0.16 0.27 0.12 0.24 0.30
0.03 0.02 0.02 0.02 0.02 0.02 0.02 0.02 0.02 0.02 0.02 0.03 0.03 0.02 0.02 0.02 0.02 0.02 0.01 0.01 0.01 0.00 0.00 0.00 0.00 0.00 0.00 0.00 0.00 0.00 0.00 0.00 0.00 0.00 0.00 0.00 0.00 0.00 0.00 0.00 0.00 0.00 0.00 0.00 0.00 0.00 0.00 0.00 0.00 0.00 0.00 0.00 0.00 0.00 0.00 0.00 0.00 0.00 0.00 0.00 0.00 0.00 0.00 0.00 0.00 0.00 0.00 0.00 0.00 0.00 0.00 0.00 0.00 0.00 0.00 0.00 0.02 0.03 0.00 0.00 0.00 0.07 0.40 0.22 0.21 0.13 0.20 0.54
0.02 0.02 0.02 0.01 0.02 0.02 0.02 0.03 0.03 0.03 0.03 0.03 0.03 0.03 0.02 0.03 0.02 0.01 0.02 0.01 0.01 0.00 0.00 0.00 0.00 0.00 0.00 0.00 0.00 0.00 0.00 0.00 0.00 0.00 0.00 0.00 0.00 0.00 0.00 0.00 0.00 0.00 0.00 0.00 0.00 0.00 0.00 0.00 0.00 0.00 0.00 0.00 0.00 0.00 0.00 0.00 0.00 0.00 0.00 0.00 0.00 0.00 0.00 0.00 0.00 0.00 0.00 0.00 0.00 0.00 0.00 0.00 0.00 0.00 0.00 0.00 0.00 0.00 0.01 0.01 0.04 0.14 0.30 0.17 0.14 0.34 0.23 0.22
0.02 0.02 0.01 0.02 0.01 0.02 0.02 0.02 0.02 0.01 0.02 0.03 0.03 0.02 0.02 0.02 0.02 0.02 0.01 0.00 0.01 0.00 0.00 0.00 0.00 0.00 0.00 0.00 0.00 0.00 0.00 0.00 0.00 0.00 0.00 0.00 0.00 0.00 0.00 0.00 0.00 0.00 0.00 0.00 0.00 0.00 0.00 0.00 0.00 0.00 0.00 0.00 0.00 0.00 0.00 0.00 0.00 0.00 0.00 0.00 0.00 0.00 0.00 0.00 0.00 0.00 0.00 0.00 0.00 0.00 0.00 0.00 0.00 0.00 0.00 0.00 0.00 0.00 0.00 0.01 0.03 0.11 0.24 0.09 0.07 0.21 0.19 0.17
0.02 0.01 0.01 0.01 0.01 0.01 0.02 0.01 0.01 0.01 0.02 0.02 0.02 0.02 0.02 0.03 0.03 0.01 0.01 0.01 0.01 0.01 0.00 0.00 0.00 0.00 0.00 0.00 0.00 0.00 0.00 0.00 0.00 0.00 0.00 0.00 0.00 0.00 0.00 0.00 0.00 0.00 0.00 0.00 0.00 0.00 0.00 0.00 0.00 0.00 0.00 0.00 0.00 0.00 0.00 0.00 0.00 0.00 0.00 0.00 0.00 0.00 0.00 0.00 0.00 0.00 0.00 0.00 0.00 0.00 0.00 0.00 0.00 0.00 0.00 0.00 0.00 0.00 0.00 0.01 0.03 0.17 0.12 0.13 0.13 0.11 0.32 0.28
0.01 0.01 0.01 0.02 0.01 0.01 0.01 0.01 0.02 0.02 0.02 0.02 0.02 0.02 0.03 0.02 0.01 0.01 0.01 0.00 0.00 0.00 0.00 0.00 0.00 0.00 0.00 0.00 0.00 0.00 0.00 0.00 0.00 0.00 0.00 0.00 0.00 0.00 0.00 0.00 0.00 0.00 0.00 0.00 0.00 0.00 0.00 0.00 0.00 0.00 0.00 0.00 0.00 0.00 0.00 0.00 0.00 0.00 0.00 0.00 0.00 0.00 0.00 0.00 0.00 0.00 0.00 0.00 0.00 0.00 0.00 0.00 0.00 0.00 0.00 0.00 0.00 0.00 0.00 0.03 0.11 0.17 0.13 0.05 0.21 0.21 0.37 0.29
0.01 0.01 0.01 0.01 0.00 0.01 0.01 0.02 0.01 0.01 0.01 0.01 0.01 0.01 0.01 0.01 0.01 0.01 0.01 0.00 0.00 0.00 0.00 0.00 0.00 0.00 0.00 0.00 0.00 0.00 0.00 0.00 0.00 0.00 0.00 0.00 0.00 0.00 0.00 0.00 0.00 0.00 0.00 0.00 0.00 0.00 0.00 0.00 0.00 0.00 0.00 0.00 0.00 0.00 0.00 0.00 0.00 0.00 0.00 0.00 0.00 0.00 0.00 0.00 0.00 0.00 0.00 0.00 0.00 0.00 0.00 0.00 0.00 0.00 0.00 0.00 0.00 0.00 0.00 0.03 0.04 0.06 0.15 0.16 0.23 0.28 0.24 0.33
0.01 0.00 0.01 0.01 0.01 0.01 0.01 0.01 0.01 0.01 0.00 0.01 0.01 0.01 0.01 0.01 0.01 0.01 0.01 0.00 0.00 0.00 0.00 0.00 0.01 0.00 0.00 0.00 0.00 0.00 0.00 0.00 0.00 0.00 0.00 0.00 0.00 0.00 0.00 0.00 0.00 0.00 0.00 0.00 0.00 0.00 0.00 0.00 0.00 0.00 0.00 0.00 0.00 0.00 0.00 0.00 0.00 0.00 0.00 0.00 0.00 0.00 0.00 0.00 0.00 0.00 0.00 0.00 0.00 0.00 0.00 0.00 0.00 0.00 0.00 0.00 0.00 0.00 0.00 0.03 0.04 0.07 0.08 0.12 0.11 0.15 0.14 0.41
0.01 0.01 0.01 0.01 0.00 0.00 0.00 0.01 0.00 0.00 0.00 0.00 0.00 0.00 0.00 0.00 0.00 0.01 0.01 0.00 0.00 0.00 0.00 0.00 0.00 0.00 0.00 0.00 0.00 0.00 0.00 0.00 0.00 0.00 0.00 0.00 0.00 0.00 0.00 0.00 0.00 0.00 0.00 0.00 0.00 0.00 0.00 0.00 0.00 0.00 0.00 0.00 0.00 0.00 0.00 0.00 0.00 0.00 0.00 0.00 0.00 0.00 0.00 0.00 0.00 0.00 0.00 0.00 0.00 0.00 0.00 0.00 0.00 0.00 0.00 0.01 0.00 0.01 0.01 0.02 0.02 0.06 0.07 0.08 0.11 0.15 0.22 0.28
0.01 0.01 0.01 0.01 0.00 0.01 0.01 0.00 0.00 0.00 0.00 0.00 0.01 0.00 0.00 0.00 0.00 0.00 0.00 0.00 0.00 0.01 0.01 0.00 0.00 0.00 0.00 0.00 0.00 0.00 0.00 0.00 0.00 0.00 0.00 0.00 0.00 0.00 0.00 0.00 0.00 0.00 0.00 0.00 0.00 0.00 0.00 0.00 0.00 0.00 0.00 0.00 0.00 0.00 0.00 0.00 0.00 0.00 0.00 0.00 0.00 0.00 0.00 0.00 0.00 0.00 0.00 0.00 0.00 0.00 0.00 0.00 0.00 0.00 0.00 0.01 0.00 0.00 0.01 0.03 0.09 0.20 0.14 0.06 0.09 0.11 0.15 0.25
0.01 0.01 0.00 0.00 0.01 0.00 0.00 0.00 0.00 0.00 0.00 0.01 0.00 0.00 0.00 0.00 0.00 0.00 0.00 0.00 0.01 0.00 0.00 0.01 0.00 0.00 0.00 0.00 0.00 0.00 0.00 0.00 0.00 0.00 0.00 0.00 0.00 0.00 0.00 0.00 0.00 0.00 0.00 0.00 0.00 0.00 0.00 0.00 0.00 0.00 0.00 0.00 0.00 0.00 0.00 0.00 0.00 0.00 0.00 0.00 0.00 0.00 0.00 0.00 0.00 0.00 0.00 0.00 0.00 0.00 0.00 0.00 0.00 0.00 0.00 0.01 0.01 0.00 0.00 0.10 0.14 0.40 0.46 0.30 0.20 0.19 0.37 0.59
0.01 0.01 0.00 0.00 0.00 0.00 0.00 0.00 0.00 0.00 0.00 0.00 0.00 0.00 0.00 0.00 0.00 0.00 0.00 0.00 0.00 0.00 0.00 0.00 0.00 0.00 0.00 0.00 0.00 0.00 0.00 0.00 0.00 0.00 0.00 0.00 0.00 0.00 0.00 0.00 0.00 0.00 0.00 0.00 0.00 0.00 0.00 0.00 0.00 0.00 0.00 0.00 0.00 0.00 0.00 0.00 0.00 0.00 0.00 0.00 0.00 0.00 0.00 0.00 0.00 0.00 0.00 0.00 0.00 0.00 0.00 0.00 0.00 0.00 0.00 0.01 0.01 0.01 0.00 0.05 0.18 0.14 0.11 0.24 0.28 0.41 0.35 0.33
0.01 0.00 0.00 0.00 0.00 0.00 0.00 0.00 0.00 0.00 0.00 0.00 0.00 0.00 0.00 0.00 0.00 0.00 0.00 0.01 0.01 0.02 0.00 0.00 0.00 0.00 0.00 0.00 0.00 0.00 0.00 0.00 0.00 0.00 0.00 0.00 0.00 0.00 0.00 0.00 0.00 0.00 0.00 0.00 0.00 0.00 0.00 0.00 0.00 0.00 0.00 0.00 0.00 0.00 0.00 0.00 0.00 0.00 0.00 0.00 0.01 0.00 0.00 0.00 0.00 0.00 0.00 0.00 0.00 0.00 0.00 0.00 0.00 0.00 0.00 0.02 0.01 0.01 0.01 0.05 0.06 0.06 0.07 0.09 0.08 0.08 0.30 0.43
0.01 0.00 0.00 0.00 0.00 0.00 0.00 0.00 0.00 0.00 0.00 0.00 0.00 0.00 0.01 0.00 0.00 0.00 0.01 0.00 0.00 0.00 0.01 0.00 0.00 0.00 0.00 0.00 0.00 0.00 0.00 0.00 0.00 0.00 0.00 0.00 0.00 0.00 0.00 0.00 0.00 0.00 0.00 0.00 0.00 0.00 0.00 0.00 0.00 0.00 0.00 0.00 0.00 0.00 0.00 0.00 0.00 0.00 0.00 0.00 0.00 0.00 0.00 0.00 0.00 0.00 0.00 0.00 0.00 0.00 0.00 0.00 0.00 0.00 0.00 0.00 0.01 0.02 0.01 0.03 0.04 0.09 0.09 0.15 0.09 0.06 0.11 0.15
0.01 0.01 0.00 0.00 0.00 0.00 0.00 0.00 0.00 0.00 0.00 0.00 0.00 0.00 0.00 0.00 0.00 0.00 0.00 0.00 0.00 0.00 0.00 0.00 0.00 0.00 0.01 0.00 0.00 0.00 0.00 0.00 0.00 0.00 0.00 0.00 0.00 0.00 0.00 0.00 0.00 0.00 0.00 0.00 0.00 0.00 0.00 0.00 0.00 0.00 0.00 0.00 0.00 0.00 0.00 0.00 0.00 0.00 0.00 0.00 0.00 0.01 0.00 0.00 0.00 0.00 0.00 0.00 0.00 0.00 0.00 0.00 0.00 0.00 0.00 0.01 0.02 0.01 0.01 0.02 0.05 0.09 0.08 0.07 0.07 0.04 0.15 0.14
0.00 0.01 0.00 0.00 0.00 0.00 0.00 0.00 0.00 0.00 0.00 0.00 0.00 0.00 0.00 0.00 0.00 0.00 0.00 0.00 0.00 0.00 0.00 0.00 0.00 0.00 0.00 0.00 0.00 0.00 0.00 0.00 0.00 0.00 0.00 0.00 0.00 0.00 0.00 0.00 0.00 0.00 0.00 0.00 0.00 0.00 0.00 0.00 0.00 0.00 0.00 0.00 0.00 0.00 0.00 0.00 0.00 0.00 0.00 0.00 0.00 0.00 0.00 0.00 0.00 0.00 0.00 0.00 0.00 0.00 0.00 0.00 0.00 0.00 0.00 0.00 0.01 0.02 0.02 0.02 0.03 0.13 0.05 0.03 0.07 0.11 0.07 0.08
0.01 0.00 0.00 0.00 0.00 0.00 0.00 0.00 0.00 0.00 0.00 0.01 0.00 0.00 0.00 0.00 0.00 0.02 0.00 0.00 0.00 0.00 0.00 0.00 0.00 0.00 0.00 0.00 0.00 0.00 0.00 0.00 0.00 0.00 0.00 0.00 0.00 0.00 0.00 0.00 0.00 0.00 0.00 0.00 0.00 0.00 0.00 0.00 0.00 0.00 0.00 0.00 0.00 0.00 0.00 0.00 0.00 0.00 0.00 0.00 0.00 0.00 0.00 0.00 0.00 0.00 0.00 0.00 0.00 0.00 0.00 0.00 0.00 0.00 0.00 0.00 0.01 0.02 0.01 0.01 0.02 0.03 0.04 0.07 0.12 0.11 0.09 0.13
0.00 0.00 0.00 0.00 0.00 0.00 0.00 0.00 0.00 0.00 0.01 0.00 0.00 0.00 0.00 0.00 0.00 0.00 0.00 0.00 0.00 0.00 0.00 0.00 0.00 0.00 0.00 0.00 0.00 0.00 0.00 0.00 0.00 0.00 0.00 0.00 0.00 0.00 0.00 0.00 0.00 0.00 0.00 0.00 0.00 0.00 0.00 0.00 0.00 0.00 0.00 0.00 0.00 0.00 0.00 0.00 0.00 0.00 0.00 0.00 0.00 0.01 0.00 0.00 0.00 0.00 0.00 0.00 0.00 0.00 0.00 0.00 0.00 0.00 0.00 0.00 0.00 0.01 0.01 0.00 0.01 0.01 0.01 0.02 0.11 0.59 0.39 0.29
0.00 0.00 0.00 0.00 0.00 0.00 0.00 0.00 0.00 0.00 0.00 0.00 0.00 0.00 0.00 0.00 0.00 0.00 0.00 0.00 0.00 0.00 0.00 0.00 0.00 0.00 0.00 0.00 0.00 0.00 0.00 0.00 0.00 0.00 0.00 0.00 0.00 0.00 0.00 0.00 0.00 0.00 0.00 0.00 0.00 0.00 0.00 0.00 0.00 0.00 0.00 0.00 0.00 0.00 0.00 0.00 0.00 0.00 0.00 0.00 0.00 0.00 0.00 0.03 0.00 0.00 0.00 0.00 0.00 0.00 0.00 0.01 0.00 0.00 0.00 0.00 0.01 0.00 0.01 0.00 0.00 0.00 0.00 0.01 0.02 0.09 0.12 0.12
0.00 0.00 0.00 0.00 0.00 0.00 0.00 0.00 0.01 0.01 0.00 0.00 0.00 0.00 0.00 0.00 0.00 0.00 0.00 0.00 0.00 0.00 0.00 0.00 0.00 0.00 0.00 0.00 0.00 0.00 0.00 0.00 0.00 0.00 0.00 0.00 0.00 0.00 0.00 0.00 0.00 0.00 0.00 0.00 0.00 0.00 0.00 0.00 0.00 0.00 0.00 0.00 0.00 0.00 0.00 0.00 0.00 0.00 0.00 0.00 0.00 0.00 0.00 0.00 0.06 0.00 0.00 0.00 0.00 0.00 0.00 0.00 0.00 0.00 0.00 0.00 0.00 0.01 0.00 0.01 0.01 0.01 0.01 0.02 0.05 0.10 0.05 0.16
0.00 0.00 0.00 0.00 0.00 0.00 0.00 0.00 0.00 0.00 0.00 0.00 0.00 0.00 0.00 0.00 0.00 0.00 0.00 0.00 0.00 0.00 0.00 0.00 0.00 0.00 0.00 0.00 0.00 0.00 0.00 0.00 0.00 0.00 0.00 0.00 0.00 0.00 0.00 0.00 0.00 0.00 0.00 0.00 0.00 0.00 0.00 0.00 0.00 0.00 0.00 0.00 0.00 0.00 0.00 0.00 0.00 0.00 0.00 0.00 0.00 0.00 0.00 0.00 0.00 0.00 0.00 0.02 0.00 0.00 0.02 0.01 0.01 0.00 0.00 0.00 0.00 0.00 0.00 0.01 0.01 0.00 0.01 0.01 0.04 0.08 0.07 0.16
0.00 0.00 0.00 0.00 0.00 0.00 0.00 0.00 0.00 0.00 0.00 0.00 0.00 0.00 0.00 0.00 0.00 0.00 0.00 0.00 0.02 0.01 0.00 0.00 0.00 0.00 0.00 0.00 0.00 0.00 0.00 0.00 0.00 0.00 0.00 0.00 0.00 0.00 0.00 0.00 0.00 0.00 0.00 0.00 0.00 0.00 0.00 0.00 0.00 0.00 0.00 0.00 0.00 0.00 0.00 0.00 0.00 0.00 0.03 0.00 0.00 0.00 0.00 0.00 0.00 0.00 0.00 0.02 0.04 0.00 0.01 0.03 0.00 0.00 0.00 0.00 0.00 0.00 0.00 0.00 0.00 0.00 0.01 0.01 0.07 0.06 0.04 0.12
0.00 0.00 0.00 0.00 0.00 0.01 0.00 0.00 0.00 0.00 0.00 0.00 0.00 0.00 0.00 0.00 0.00 0.00 0.01 0.02 0.08 0.02 0.00 0.00 0.00 0.00 0.00 0.00 0.00 0.00 0.00 0.00 0.00 0.00 0.00 0.00 0.00 0.00 0.00 0.00 0.00 0.00 0.00 0.00 0.00 0.00 0.00 0.00 0.00 0.00 0.00 0.00 0.00 0.00 0.00 0.00 0.00 0.02 0.01 0.00 0.00 0.01 0.00 0.00 0.00 0.00 0.01 0.00 0.01 0.00 0.00 0.02 0.02 0.06 0.00 0.00 0.00 0.00 0.00 0.00 0.01 0.01 0.03 0.01 0.08 0.07 0.05 0.09
0.00 0.00 0.01 0.00 0.00 0.02 0.02 0.01 0.00 0.00 0.00 0.00 0.00 0.00 0.00 0.00 0.00 0.00 0.02 0.02 0.01 0.00 0.02 0.00 0.00 0.00 0.00 0.00 0.00 0.00 0.00 0.00 0.00 0.00 0.00 0.00 0.00 0.00 0.00 0.00 0.00 0.00 0.00 0.00 0.01 0.00 0.00 0.00 0.00 0.00 0.00 0.00 0.00 0.00 0.00 0.00 0.00 0.01 0.00 0.00 0.00 0.00 0.02 0.00 0.00 0.01 0.05 0.01 0.03 0.00 0.00 0.00 0.02 0.03 0.00 0.00 0.00 0.00 0.02 0.01 0.01 0.01 0.03 0.17 0.15 0.05 0.04 0.06
0.00 0.00 0.00 0.00 0.00 0.01 0.01 0.01 0.00 0.00 0.00 0.00 0.00 0.00 0.00 0.00 0.00 0.00 0.21 0.10 0.12 0.00 0.00 0.01 0.00 0.00 0.00 0.00 0.00 0.00 0.00 0.00 0.00 0.00 0.00 0.00 0.00 0.00 0.00 0.00 0.00 0.00 0.00 0.00 0.00 0.01 0.00 0.00 0.00 0.00 0.00 0.00 0.00 0.00 0.00 0.00 0.01 0.00 0.00 0.00 0.00 0.00 0.00 0.00 0.02 0.00 0.08 0.00 0.02 0.04 0.09 0.02 0.04 0.01 0.03 0.01 0.01 0.05 0.07 0.03 0.01 0.02 0.03 0.09 0.03 0.04 0.05 0.09
0.00 0.00 0.01 0.01 0.01 0.00 0.00 0.02 0.00 0.00 0.00 0.00 0.00 0.00 0.00 0.00 0.00 0.09 0.04 0.01 0.00 0.10 0.00 0.01 0.00 0.00 0.00 0.00 0.00 0.00 0.00 0.00 0.00 0.00 0.00 0.00 0.00 0.00 0.00 0.00 0.00 0.00 0.00 0.00 0.00 0.00 0.00 0.00 0.00 0.00 0.00 0.00 0.00 0.00 0.00 0.00 0.00 0.00 0.00 0.00 0.00 0.00 0.03 0.01 0.00 0.05 0.05 0.02 0.03 0.03 0.02 0.01 0.05 0.07 0.05 0.04 0.07 0.01 0.02 0.03 0.05 0.03 0.04 0.08 0.06 0.06 0.09 0.15
0.00 0.01 0.01 0.01 0.03 0.00 0.00 0.00 0.00 0.00 0.00 0.00 0.00 0.00 0.00 0.00 0.09 0.14 0.01 0.02 0.00 0.02 0.00 0.00 0.00 0.00 0.00 0.00 0.01 0.00 0.00 0.00 0.00 0.00 0.00 0.00 0.00 0.00 0.00 0.00 0.00 0.00 0.00 0.00 0.00 0.00 0.00 0.00 0.00 0.00 0.00 0.00 0.00 0.00 0.00 0.00 0.00 0.00 0.00 0.02 0.00 0.02 0.00 0.01 0.05 0.04 0.09 0.01 0.03 0.02 0.01 0.02 0.05 0.15 0.09 0.08 0.01 0.00 0.02 0.07 0.05 0.08 0.09 0.05 0.09 0.10 0.07 0.15
0.01 0.01 0.01 0.06 0.01 0.02 0.01 0.00 0.00 0.00 0.00 0.00 0.00 0.00 0.00 0.10 0.02 0.09 0.01 0.00 0.09 0.01 0.02 0.01 0.00 0.00 0.00 0.00 0.00 0.00 0.00 0.00 0.00 0.00 0.00 0.00 0.00 0.00 0.00 0.00 0.00 0.00 0.01 0.01 0.04 0.00 0.00 0.00 0.00 0.00 0.00 0.00 0.00 0.00 0.00 0.00 0.00 0.00 0.00 0.02 0.21 0.19 0.02 0.09 0.05 0.03 0.00 0.03 0.08 0.00 0.01 0.02 0.00 0.14 0.39 0.15 0.03 0.01 0.03 0.05 0.04 0.03 0.03 0.02 0.04 0.08 0.09 0.08
0.00 0.01 0.02 0.02 0.01 0.01 0.00 0.00 0.00 0.00 0.00 0.00 0.00 0.00 0.10 0.04 0.00 0.04 0.05 0.00 0.17 0.00 0.01 0.00 0.02 0.00 0.02 0.00 0.00 0.00 0.00 0.01 0.01 0.00 0.00 0.00 0.00 0.00 0.00 0.00 0.00 0.00 0.05 0.06 0.02 0.00 0.00 0.00 0.00 0.00 0.00 0.00 0.00 0.00 0.02 0.01 0.00 0.00 0.03 0.08 0.08 0.17 0.07 0.02 0.07 0.02 0.06 0.02 0.01 0.05 0.02 0.03 0.15 0.12 0.10 0.27 0.07 0.03 0.03 0.03 0.04 0.05 0.05 0.03 0.04 0.05 0.08 0.14
0.00 0.01 0.01 0.00 0.00 0.00 0.00 0.00 0.00 0.00 0.00 0.00 0.00 0.01 0.03 0.00 0.01 0.00 0.02 0.11 0.05 0.01 0.00 0.01 0.00 0.00 0.00 0.04 0.01 0.01 0.02 0.00 0.00 0.00 0.00 0.01 0.00 0.01 0.00 0.00 0.00 0.00 0.00 0.01 0.00 0.02 0.06 0.10 0.00 0.00 0.01 0.00 0.00 0.00 0.01 0.02 0.01 0.01 0.00 0.00 0.08 0.11 0.07 0.02 0.05 0.05 0.03 0.18 0.07 0.04 0.00 0.03 0.01 0.31 0.16 0.32 0.09 0.05 0.03 0.03 0.04 0.07 0.09 0.11 0.09 0.11 0.48 0.89
0.00 0.00 0.00 0.00 0.00 0.00 0.00 0.00 0.00 0.00 0.00 0.00 0.00 0.00 0.00 0.00 0.00 0.03 0.02 0.01 0.00 0.01 0.01 0.00 0.00 0.01 0.04 0.00 0.01 0.00 0.00 0.06 0.00 0.00 0.00 0.00 0.02 0.00 0.01 0.00 0.00 0.00 0.00 0.02 0.03 0.01 0.00 0.02 0.01 0.00 0.00 0.00 0.00 0.00 0.00 0.00 0.01 0.01 0.00 0.00 0.03 0.02 0.00 0.10 0.24 0.03 0.12 0.05 0.05 0.04 0.01 0.17 0.37 0.41 0.43 0.19 0.09 0.03 0.03 0.05 0.16 0.08 0.09 0.14 0.12 0.30 0.23 0.20
0.00 0.00 0.00 0.00 0.00 0.00 0.00 0.00 0.00 0.00 0.00 0.00 0.01 0.00 0.00 0.00 0.01 0.00 0.01 0.00 0.02 0.00 0.00 0.00 0.00 0.02 0.01 0.02 0.00 0.01 0.02 0.06 0.02 0.00 0.03 0.00 0.00 0.02 0.00 0.00 0.00 0.00 0.02 0.00 0.12 0.03 0.01 0.11 0.00 0.01 0.00 0.00 0.00 0.00 0.00 0.00 0.13 0.18 0.00 0.05 0.02 0.01 0.02 0.04 0.00 0.00 0.00 0.00 0.01 0.00 0.04 0.07 0.02 0.17 0.10 0.32 0.17 0.11 0.06 0.08 0.10 0.20 0.13 0.25 0.29 0.27 0.46 0.85
0.00 0.00 0.01 0.00 0.00 0.00 0.00 0.00 0.00 0.00 0.00 0.02 0.01 0.00 0.00 0.00 0.00 0.00 0.00 0.00 0.00 0.00 0.00 0.05 0.02 0.01 0.07 0.03 0.04 0.00 0.09 0.00 0.13 0.01 0.12 0.00 0.01 0.00 0.00 0.00 0.00 0.00 0.00 0.00 0.05 0.00 0.06 0.21 0.01 0.02 0.00 0.00 0.00 0.00 0.00 0.00 0.00 0.00 0.02 0.03 0.00 0.00 0.02 0.02 0.12 0.03 0.00 0.02 0.02 0.01 0.03 0.29 0.02 0.41 0.17 0.11 0.16 0.14 0.17 0.22 0.12 0.34 0.54 0.55 0.50 0.53 0.72 1.17
0.01 0.01 0.03 0.02 0.01 0.00 0.00 0.00 0.00 0.00 0.00 0.00 0.00 0.00 0.00 0.00 0.00 0.00 0.00 0.00 0.00 0.00 0.01 0.00 0.03 0.00 0.02 0.05 0.02 0.02 0.05 0.06 0.29 0.03 0.15 0.02 0.20 0.00 0.01 0.00 0.00 0.00 0.00 0.00 0.01 0.06 0.00 0.07 0.02 0.00 0.00 0.00 0.00 0.00 0.00 0.00 0.00 0.00 0.07 0.00 0.02 0.06 0.05 0.03 0.00 0.03 0.02 0.01 0.06 0.01 0.02 0.06 0.14 0.36 0.07 0.30 0.17 0.19 0.21 0.23 0.25 0.18 0.25 0.39 0.74 0.88 0.98 1.73
0.01 0.01 0.11 0.01 0.00 0.00 0.00 0.00 0.00 0.00 0.01 0.00 0.00 0.00 0.00 0.00 0.00 0.00 0.00 0.00 0.00 0.00 0.00 0.00 0.05 0.00 0.00 0.03 0.03 0.04 0.06 0.13 0.06 0.14 0.13 0.21 0.18 0.03 0.11 0.01 0.04 0.00 0.00 0.00 0.00 0.01 0.00 0.01 0.07 0.00 0.00 0.02 0.00 0.00 0.02 0.00 0.00 0.00 0.00 0.00 0.00 0.00 0.05 0.08 0.02 0.09 0.01 0.14 0.01 0.02 0.04 0.24 0.15 0.38 0.19 0.26 0.19 0.27 0.23 0.29 0.30 0.34 0.32 0.52 1.18 0.85 0.80 1.19
0.00 0.06 0.34 0.00 0.00 0.00 0.00 0.00 0.00 0.00 0.01 0.01 0.01 0.00 0.00 0.00 0.00 0.00 0.00 0.00 0.01 0.00 0.00 0.00 0.00 0.03 0.00 0.01 0.00 0.06 0.13 0.07 0.09 0.21 0.09 0.40 0.06 0.05 0.08 0.00 0.08 0.00 0.00 0.00 0.00 0.00 0.03 0.00 0.09 0.05 0.00 0.00 0.04 0.00 0.01 0.01 0.04 0.00 0.00 0.00 0.01 0.01 0.03 0.01 0.10 0.02 0.16 0.13 0.06 0.09 0.10 0.44 0.36 0.10 0.12 0.20 0.26 0.34 0.53 0.63 0.72 0.65 0.74 0.86 1.04 1.38 1.26 1.37
0.03 0.27 0.40 0.01 0.00 0.00 0.00 0.01 0.00 0.00 0.00 0.00 0.00 0.00 0.00 0.00 0.00 0.00 0.00 0.00 0.00 0.00 0.00 0.00 0.00 0.00 0.00 0.01 0.01 0.00 0.01 0.03 0.14 0.26 0.06 0.10 0.02 0.23 0.00 0.05 0.00 0.07 0.00 0.01 0.00 0.04 0.00 0.00 0.00 0.01 0.03 0.01 0.01 0.00 0.01 0.00 0.00 0.00 0.01 0.05 0.05 0.09 0.12 0.10 0.10 0.00 0.08 0.04 0.10 0.05 0.17 0.36 0.21 0.09 0.21 0.32 0.44 0.48 0.55 0.59 0.77 0.96 1.10 0.95 1.44 1.32 1.40 1.56
0.15 0.33 0.44 0.00 0.00 0.00 0.01 0.15 0.02 0.02 0.01 0.01 0.02 0.00 0.00 0.00 0.00 0.00 0.00 0.00 0.00 0.01 0.00 0.00 0.00 0.00 0.00 0.00 0.01 0.01 0.00 0.01 0.06 0.07 0.06 0.27 0.36 0.17 0.17 0.00 0.01 0.03 0.07 0.03 0.01 0.03 0.01 0.01 0.04 0.01 0.11 0.07 0.01 0.02 0.00 0.00 0.00 0.00 0.00 0.02 0.00 0.04 0.01 0.13 0.19 0.27 0.09 0.06 0.04 0.18 0.10 0.43 0.18 0.22 0.34 0.38 0.46 0.47 0.66 1.01 0.74 0.52 0.69 0.87 0.74 0.84 0.92 0.71
0.10 0.33 0.44 0.00 0.00 0.01 0.03 0.14 0.13 0.09 0.10 0.06 0.01 0.00 0.00 0.01 0.00 0.00 0.00 0.01 0.01 0.00 0.00 0.00 0.00 0.00 0.00 0.00 0.01 0.00 0.00 0.05 0.01 0.16 0.18 0.18 0.38 0.15 0.03 0.01 0.01 0.00 0.00 0.08 0.00 0.02 0.00 0.00 0.01 0.01 0.13 0.03 0.00 0.00 0.00 0.00 0.00 0.00 0.00 0.00 0.00 0.06 0.09 0.09 0.13 0.20 0.12 0.11 0.05 0.13 0.06 0.51 0.21 0.32 0.55 0.51 0.42 0.46 0.46 0.58 0.57 0.70 0.66 0.43 0.65 0.43 1.09 1.06
0.21 0.79 0.19 0.02 0.00 0.02 0.25 0.17 0.10 0.04 0.10 0.04 0.05 0.03 0.00 0.01 0.00 0.00 0.00 0.01 0.00 0.01 0.00 0.00 0.00 0.00 0.00 0.00 0.00 0.00 0.03 0.00 0.01 0.01 0.07 0.07 0.20 0.04 0.01 0.01 0.01 0.04 0.08 0.39 0.05 0.07 0.07 0.02 0.00 0.09 0.05 0.15 0.14 0.04 0.01 0.00 0.00 0.01 0.02 0.01 0.00 0.00 0.04 0.09 0.07 0.10 0.01 0.04 0.19 0.12 0.17 0.33 0.27 0.40 0.30 0.38 0.40 0.39 0.64 0.50 0.42 0.67 0.59 0.42 0.31 0.45 0.48 0.58
0.27 0.70 0.27 0.39 0.02 0.03 0.34 0.48 0.07 0.05 0.14 0.09 0.14 0.06 0.12 0.01 0.00 0.01 0.03 0.04 0.01 0.00 0.00 0.00 0.00 0.03 0.00 0.00 0.00 0.00 0.00 0.01 0.04 0.00 0.00 0.18 0.23 0.00 0.01 0.02 0.01 0.13 0.10 0.02 0.02 0.02 0.05 0.07 0.01 0.06 0.22 0.18 0.19 0.21 0.21 0.12 0.05 0.01 0.02 0.01 0.05 0.02 0.08 0.14 0.05 0.05 0.05 0.05 0.09 0.10 0.46 0.28 0.38 0.42 0.31 0.26 0.27 0.30 0.36 0.37 0.49 1.02 1.06 0.62 0.60 0.88 0.65 0.75
0.40 0.31 0.12 0.59 0.97 0.59 0.13 0.18 0.05 0.10 0.09 0.13 0.03 0.06 0.01 0.10 0.00 0.00 0.00 0.02 0.00 0.01 0.00 0.00 0.00 0.00 0.00 0.00 0.00 0.00 0.01 0.01 0.01 0.02 0.02 0.19 0.12 0.07 0.03 0.01 0.04 0.03 0.04 0.02 0.07 0.10 0.25 0.05 0.09 0.03 0.26 0.45 0.27 0.24 0.14 0.04 0.02 0.06 0.07 0.05 0.06 0.00 0.03 0.06 0.10 0.15 0.12 0.14 0.11 0.07 0.10 0.28 0.26 0.29 0.23 0.29 0.23 0.44 0.42 0.33 0.28 0.30 0.34 0.39 0.49 0.53 0.61 0.51
0.33 0.30 0.09 0.14 0.15 0.43 0.41 0.19 0.13 0.11 0.11 0.09 0.09 0.03 0.05 0.03 0.09 0.03 0.00 0.11 0.00 0.01 0.00 0.00 0.00 0.00 0.02 0.00 0.00 0.01 0.00 0.01 0.00 0.01 0.03 0.21 0.22 0.25 0.02 0.16 0.05 0.00 0.01 0.03 0.07 0.20 0.57 0.33 0.13 0.04 0.16 0.10 0.03 0.14 0.03 0.04 0.12 0.11 0.13 0.06 0.02 0.05 0.04 0.06 0.03 0.12 0.25 0.16 0.25 0.20 0.14 0.12 0.23 0.20 0.19 0.27 0.31 0.41 0.44 0.21 0.21 0.36 0.52 0.53 0.43 0.38 0.45 0.49
0.30 0.31 0.11 0.22 0.24 0.35 0.32 0.67 0.30 0.36 0.21 0.10 0.36 0.05 0.06 0.13 0.07 0.15 0.08 0.00 0.00 0.00 0.01 0.01 0.00 0.00 0.00 0.00 0.01 0.01 0.02 0.02 0.03 0.01 0.02 0.06 0.04 0.31 0.51 0.20 0.26 0.05 0.05 0.08 0.03 0.03 0.21 0.23 0.36 0.27 0.21 0.21 0.11 0.02 0.09 0.05 0.09 0.13 0.11 0.18 0.16 0.11 0.07 0.12 0.10 0.09 0.17 0.11 0.32 0.38 0.47 0.12 0.18 0.22 0.27 0.15 0.12 0.14 0.18 0.24 0.21 0.43 0.37 0.42 0.42 0.57 0.52 0.38
0.51 0.24 0.30 0.06 0.08 0.20 0.20 0.31 0.25 0.26 0.53 0.30 0.19 0.04 0.11 0.05 0.14 0.15 0.12 0.31 0.02 0.02 0.00 0.00 0.00 0.01 0.02 0.01 0.03 0.02 0.07 0.07 0.01 0.04 0.14 0.11 0.15 0.27 0.49 0.38 0.20 0.12 0.04 0.18 0.06 0.10 0.08 0.29 0.39 0.33 0.32 0.47 0.22 0.15 0.11 0.19 0.17 0.09 0.03 0.15 0.19 0.20 0.20 0.08 0.06 0.11 0.16 0.10 0.07 0.09 0.08 0.18 0.29 0.34 0.18 0.23 0.17 0.10 0.20 0.13 0.20 0.42 0.45 0.38 0.53 0.28 0.18 0.22
0.36 0.48 0.22 0.03 0.17 0.05 0.18 0.51 0.49 0.39 0.33 0.13 0.18 0.12 0.16 0.17 0.13 0.18 0.06 0.16 0.09 0.10 0.02 0.07 0.02 0.01 0.01 0.03 0.01 0.05 0.15 0.07 0.12 0.09 0.06 0.04 0.28 0.18 0.32 0.53 0.75 0.12 0.07 0.18 0.11 0.21 0.29 0.56 0.06 0.31 0.33 0.31 0.43 0.25 0.19 0.36 0.13 0.15 0.02 0.02 0.03 0.12 0.05 0.05 0.07 0.05 0.07 0.10 0.13 0.02 0.00 0.07 0.18 0.13 0.14 0.26 0.16 0.10 0.10 0.13 0.13 0.16 0.26 0.46 0.30 0.43 0.44 0.24
0.30 0.14 0.02 0.11 0.19 0.09 0.09 0.27 0.28 0.42 0.54 0.40 0.24 0.29 0.18 0.11 0.08 0.19 0.38 0.06 0.09 0.14 0.01 0.09 0.05 0.05 0.03 0.05 0.02 0.04 0.01 0.02 0.01 0.02 0.45 0.07 0.14 0.25 0.11 0.39 0.03 0.32 0.20 0.38 0.19 0.51 0.13 0.84 0.33 0.71 0.31 0.50 0.40 0.47 0.35 0.44 0.29 0.31 0.20 0.08 0.03 0.18 0.17 0.06 0.17 0.23 0.21 0.28 0.27 0.24 0.03 0.04 0.16 0.12 0.13 0.08 0.11 0.11 0.09 0.09 0.10 0.39 0.24 0.22 0.28 0.16 0.25 0.44
0.21 0.06 0.04 0.06 0.06 0.00 0.06 0.01 0.10 0.19 0.34 0.50 0.49 0.32 0.17 0.17 0.07 0.11 0.32 0.00 0.02 0.03 0.06 0.02 0.06 0.03 0.31 0.06 0.08 0.03 0.01 0.00 0.01 0.02 0.00 0.05 0.08 0.46 0.03 0.23 0.22 0.41 0.34 0.09 0.27 0.33 0.44 0.16 0.27 0.30 0.31 0.42 0.64 0.48 0.35 0.32 0.40 0.52 0.36 0.17 0.09 0.11 0.10 0.09 0.09 0.06 0.13 0.32 0.72 0.46 0.24 0.12 0.11 0.12 0.06 0.09 0.09 0.12 0.11 0.11 0.10 0.06 0.10 0.07 0.09 0.11 0.19 0.22